TimeCDT,TemperatureF,Dew PointF,Humidity,Sea Level PressureIn,VisibilityMPH,Wind Direction,Wind SpeedMPH,Gust SpeedMPH,PrecipitationIn,Events,Conditions,WindDirDegrees,DateUTC
12:34 AM,66.2,62.6,88,30.09,7.0,SSE,10.4,18.4,N/A,,Mostly Cloudy,150,2012-03-14 05:34:00
12:53 AM,66.9,63.0,87,30.06,7.0,SSE,9.2,18.4,N/A,,Overcast,160,2012-03-14 05:53:00
1:06 AM,66.2,62.6,88,30.10,7.0,SSE,8.1,23.0,N/A,,Overcast,150,2012-03-14 06:06:00
1:53 AM,66.9,62.1,84,30.05,9.0,SSE,10.4,17.3,N/A,,Overcast,160,2012-03-14 06:53:00
4:53 AM,64.9,62.1,90,30.02,8.0,South,6.9,-,N/A,,Overcast,180,2012-03-14 09:53:00
5:53 AM,64.9,62.1,90,30.02,8.0,SSE,4.6,-,N/A,,Overcast,160,2012-03-14 10:53:00
6:25 AM,64.4,62.6,94,30.08,7.0,SSE,3.5,-,N/A,,Overcast,160,2012-03-14 11:25:00
6:53 AM,64.9,62.1,90,30.05,7.0,SSE,6.9,-,N/A,,Overcast,150,2012-03-14 11:53:00
7:02 AM,64.4,62.6,94,30.09,7.0,SE,8.1,-,N/A,,Overcast,140,2012-03-14 12:02:00
7:53 AM,66.0,62.1,87,30.06,6.0,Variable,4.6,-,N/A,,Overcast,0,2012-03-14 12:53:00
8:02 AM,66.2,62.6,88,30.10,6.0,SE,5.8,-,N/A,,Overcast,140,2012-03-14 13:02:00
8:26 AM,66.2,62.6,88,30.10,6.0,SE,9.2,-,N/A,,Overcast,140,2012-03-14 13:26:00
8:53 AM,66.9,63.0,87,30.08,6.0,SSE,5.8,-,N/A,,Overcast,160,2012-03-14 13:53:00
9:00 AM,66.2,62.6,88,30.12,6.0,SSE,4.6,-,N/A,,Overcast,160,2012-03-14 14:00:00
9:10 AM,66.2,62.6,88,30.12,6.0,SSE,5.8,-,N/A,,Overcast,150,2012-03-14 14:10:00
9:53 AM,68.0,63.0,84,30.10,7.0,SSE,9.2,-,N/A,,Overcast,160,2012-03-14 14:53:00
10:04 AM,69.8,62.6,78,30.14,7.0,SSE,9.2,-,N/A,,Overcast,160,2012-03-14 15:04:00
10:53 AM,69.1,63.0,81,30.11,8.0,SSE,11.5,17.3,N/A,,Overcast,150,2012-03-14 15:53:00
11:53 AM,70.0,64.0,81,30.11,8.0,SSE,5.8,-,N/A,,Overcast,160,2012-03-14 16:53:00
12:37 PM,71.6,64.4,78,30.14,9.0,SSE,6.9,17.3,N/A,,Overcast,160,2012-03-14 17:37:00
12:53 PM,71.1,64.0,78,30.11,9.0,South,8.1,16.1,N/A,,Overcast,170,2012-03-14 17:53:00
1:53 PM,73.0,64.9,76,30.08,8.0,SSE,10.4,-,N/A,,Overcast,150,2012-03-14 18:53:00
2:07 PM,73.4,64.4,73,30.11,9.0,South,6.9,-,N/A,,Overcast,170,2012-03-14 19:07:00
2:53 PM,77.0,64.0,64,30.05,10.0,South,12.7,21.9,N/A,,Overcast,190,2012-03-14 19:53:00
3:53 PM,77.0,63.0,62,30.04,10.0,SSE,8.1,19.6,N/A,,Mostly Cloudy,160,2012-03-14 20:53:00
4:53 PM,77.0,64.0,64,30.03,10.0,SSE,5.8,-,N/A,,Mostly Cloudy,160,2012-03-14 21:53:00
5:53 PM,75.9,64.0,67,30.03,10.0,SSE,9.2,18.4,N/A,,Mostly Cloudy,150,2012-03-14 22:53:00
6:53 PM,75.0,64.0,69,30.02,10.0,SE,9.2,17.3,N/A,,Mostly Cloudy,130,2012-03-14 23:53:00
7:53 PM,73.0,64.0,73,30.04,10.0,SE,10.4,16.1,N/A,,Mostly Cloudy,140,2012-03-15 00:53:00
8:20 PM,71.6,64.4,78,30.09,10.0,SE,6.9,-,N/A,,Overcast,140,2012-03-15 01:20:00
8:53 PM,71.1,64.0,78,30.05,10.0,SSE,4.6,-,N/A,,Clear,150,2012-03-15 01:53:00
9:53 PM,69.1,63.0,81,30.07,10.0,SSE,4.6,-,N/A,,Clear,160,2012-03-15 02:53:00
10:53 PM,68.0,60.1,76,30.08,10.0,SSE,8.1,-,N/A,,Clear,160,2012-03-15 03:53:00
11:53 PM,66.9,61.0,81,30.09,10.0,SSE,5.8,-,N/A,,Clear,160,2012-03-15 04:53:00